Location: Dataran Tinggi Batu Laga
(2.4167°N, 113.9667°E)
Time: 03:41:40
(UTC+00:00)

Daily predictions for brighter satellites

Satellite Brightness Start Highest point End
(mag) Time Altitude Azimuth Time Altitude Azimuth Time Altitude Azimuth
SMAP 4.4 10:39:30 10° S 10:43:55 44° WSW 10:48:19 10° NNW
CZ-4B R/B 2.4 10:42:32 10° N 10:45:32 48° WNW 10:48:29 10° SSW
CZ-4B R/B 3.2 10:40:23 10° SSE 10:45:41 89° WSW 10:51:00 10° NNW
PSLV R/B 4.1 10:42:44 10° NNE 10:46:51 56° ESE 10:50:57 10° S
Cosmos 2263 Rocket 3.8 10:44:39 10° SW 10:49:49 40° WNW 10:54:58 10° N
Cosmos 2151 4.2 10:48:00 10° NE 10:51:18 22° E 10:54:35 10° SE
Centaur AC-119 3.8 10:51:07 10° NNE 10:51:53 11° NE 10:52:46 10° ENE
Cosmos 1980 4.0 10:48:34 10° NNW 10:54:12 73° WSW 10:59:51 10° S
Cosmos 1844 Rocket 3.5 10:50:29 10° SSE 10:55:03 26° ESE 10:59:35 10° NE
Cosmos 1825 4.3 10:56:15 10° NNW 10:59:35 30° W 11:02:56 10° SSW
Cosmos 1939 Rocket 4.3 10:56:47 10° S 11:00:42 42° W 11:04:37 10° NNW
IRIDIUM 104 4.3 10:57:46 10° S 11:02:58 72° E 11:08:08 10° N
SL-16 R/B 3.0 10:58:07 10° NNE 11:03:00 30° ENE 11:07:53 10° SE
OAO 3 Rocket 3.7 11:01:02 10° SSW 11:05:18 36° SE 11:09:28 10° ENE
CZ-2C R/B 3.1 11:04:07 10° N 11:09:35 70° WNW 11:15:09 10° SSW
Ariane H10-3 3.0 11:07:08 10° WNW 11:10:00 51° N 11:19:45 11° E
Cosmos 1842 Rocket 4.5 11:07:18 10° SSE 11:11:04 27° E 11:14:51 10° NE
IRIDIUM 114 4.4 11:06:52 10° S 11:12:06 88° W 11:17:19 10° N
Cosmos 1655 Rocket 4.5 11:07:45 10° NNE 11:13:26 38° E 11:19:08 10° SSE
Cosmos 1844 4.3 11:08:50 10° SSE 11:13:58 33° ESE 11:19:04 10° NE
SAR-Lupe-4 3.5 11:12:04 10° NNE 11:15:34 59° ESE 11:19:05 10° S
Hubble Space Telescope 1.0 11:12:39 10° WNW 11:16:45 64° SSW 11:19:36 19° SE
Palapa 6 Rocket 3.8 11:10:43 10° WNW 11:17:20 71° SSW 11:21:19 19° SE
Ariane H10 4.3 01:49:06 10° W 11:21:03 60° N 11:25:26 14° ENE
Cosmos 1689 Rocket 2.7 11:20:28 10° N 11:23:10 52° W 11:25:54 10° SSW
Cosmos 968 Rocket 3.6 11:19:38 10° S 11:24:42 49° ESE 11:29:45 10° NNE
Meteor 2-3 Rocket 3.8 11:21:49 10° N 11:27:14 52° E 11:32:37 10° SSE
SAR-Lupe-1 4.2 11:24:22 10° N 11:27:54 73° WNW 11:31:28 10° SSW
BREEZE-M DEB (TANK) 3.9 11:25:07 10° SSW 11:28:57 44° ESE 11:41:16 10° NE
Meteor 2-8 Rocket 4.5 11:23:25 10° S 11:29:35 84° W 11:35:41 10° N
Cosmos 1486 Rocket 4.3 11:25:37 10° S 11:30:35 43° ESE 11:35:34 10° NNE
Meteor 2-21 4.4 11:24:44 10° N 11:30:51 74° E 11:37:03 10° S
Cosmos 1633 3.0 11:27:45 10° NNW 11:31:12 60° W 11:34:40 10° S
GEOS 3 Rocket 4.5 11:34:20 26° E 11:36:10 33° ENE 11:40:54 10° N
Delta 128 4.4 11:31:53 10° WNW 11:37:53 80° NNE 11:41:39 29° ESE
Cosmos 2237 Rocket 4.3 11:33:22 10° NW 11:37:54 25° WSW 11:42:27 10° SSW
Okean O Rocket 4.4 11:35:41 10° SW 11:38:41 18° WSW 11:41:42 10° WNW
HJ-1C 3.3 11:39:17 53° E 11:39:31 55° ENE 11:42:44 10° N
Okean-O 2.6 11:38:28 24° SSE 11:41:01 64° ENE 11:45:22 10° N
CZ-4 R/B 1.8 11:40:00 10° S 11:44:09 65° WSW 11:48:16 10° NNW
Ariane 3 Deb 4.2 11:18:53 10° W 11:45:38 82° N 11:48:34 30° ENE
Okean 3 Rocket 3.9 11:44:39 10° NNE 11:48:34 44° ENE 11:48:34 44° ENE
USA 267 4.2 11:51:06 26° ENE 11:52:27 28° NE 11:57:49 10° N
ARIANE 5 DEB (SYLDA) 4.1 11:51:55 10° WSW 11:51:57 10° WSW 11:51:57 10° WSW
Cosmos 2221 2.8 11:50:17 10° SSW 11:54:31 65° W 11:58:44 10° N
